La Junta, CO

6:52 AM MDT on July 21, 2017 (GMT -0600)
La Junta Municipal

Weather History for KLHX - February, 2014

Change the Weather History Date:

Tuesday, February 18, 2014

  Actual Average Record
Temperature  
Mean Temperature 53 °F 36 °F  
Max Temperature 72 °F 50 °F 85 °F (2016)
Min Temperature 33 °F 22 °F -4 °F (1993)
Degree Days  
Heating Degree Days 12 29  
Month to date heating degree days 694 568  
Since 1 July heating degree days 3816 3825  
Cooling Degree Days 0 0  
Month to date cooling degree days 0 0  
Year to date cooling degree days 0 0  
Growing Degree Days 4 (Base 50)    
Moisture  
Dew Point 16 °F    
Average Humidity 30    
Maximum Humidity 54    
Minimum Humidity 6    
Precipitation  
Precipitation 0.00 in 0.01 in 0.09 in (1947)
Month to date precipitation 0.10  
Year to date precipitation 0.19  
Sea Level Pressure  
Sea Level Pressure 29.81 in    
Wind  
Wind Speed 13 mph (WNW)    
Max Wind Speed 26 mph    
Max Gust Speed 33 mph    
Visibility 10 miles    
Events      
T = Trace of Precipitation, MM = Missing Value Source: NWS Daily Summary

Daily Weather History Graph

Daily Weather History Graph

Search for Another Location

Airport or City:

Trip Planner

Search our weather history database for the weather conditions in past years. The results will help you decide how hot, cold, wet, or windy it might be!

Date:

Astronomy

Feb. 18, 2014 Rise Set
Actual Time 6:40 AM MST 5:36 PM MST
Civil Twilight 6:13 AM MST 6:02 PM MST
Nautical Twilight 5:42 AM MST 6:33 PM MST
Astronomical Twilight 5:12 AM MST 7:04 PM MST
Moon 9:27 PM MST (2/18) 8:17 AM MST (2/18)
Length of Visible Light 11h 49m
Length of Day
10h 55m
Waning Gibbous, 87% of the Moon is Illuminated
Feb 18
Waning Gibbous
Feb 22
Last Quarter
Mar 1
New
Mar 8
First Quarter
Mar 16
Full

Hourly Weather History & Observations

Time (MST) Temp. Windchill Dew Point Humidity Pressure Visibility Wind Dir Wind Speed Gust Speed Precip Events Conditions
12:53 AM 46.0 °F 39.6 °F 18.0 °F 33% 29.74 in 10.0 mi West 15.0 mph - N/A   Clear
1:45 AM 46.0 °F 39.3 °F 16.0 °F 30% 29.82 in 10.0 mi SW 16.1 mph - N/A   Clear
1:53 AM 45.0 °F 38.2 °F 16.0 °F 31% 29.73 in 10.0 mi SW 15.0 mph - N/A   Clear
2:53 AM 44.1 °F 36.8 °F 16.0 °F 32% 29.70 in 10.0 mi WSW 16.1 mph - N/A   Clear
3:53 AM 44.1 °F 36.5 °F 14.0 °F 30% 29.69 in 10.0 mi SW 17.3 mph - N/A   Clear
4:53 AM 44.1 °F 37.4 °F 12.9 °F 28% 29.72 in 10.0 mi SW 13.8 mph - N/A   Clear
5:53 AM 41.0 °F 33.9 °F 14.0 °F 33% 29.73 in 10.0 mi WSW 12.7 mph - N/A   Clear
6:53 AM 37.9 °F 30.5 °F 16.0 °F 41% 29.76 in 10.0 mi WNW 11.5 mph - N/A   Clear
7:53 AM 44.1 °F 38.6 °F 16.0 °F 32% 29.78 in 10.0 mi SW 10.4 mph - N/A   Clear
8:53 AM 54.0 °F - 16.0 °F 22% 29.77 in 10.0 mi WSW 9.2 mph - N/A   Clear
9:53 AM 62.1 °F - 12.9 °F 15% 29.77 in 10.0 mi NW 12.7 mph - N/A   Clear
10:53 AM 66.9 °F - 10.9 °F 11% 29.75 in 10.0 mi West 19.6 mph - N/A   Clear
11:53 AM 69.1 °F - 3.0 °F 7% 29.75 in 10.0 mi WNW 18.4 mph - N/A   Clear
12:53 PM 70.0 °F - -0.9 °F 6% 29.75 in 10.0 mi NNW 13.8 mph 24.2 mph N/A   Clear
1:53 PM 70.0 °F - 6.1 °F 8% 29.74 in 10.0 mi NE 21.9 mph 26.5 mph N/A   Clear
2:53 PM 64.9 °F - 16.0 °F 15% 29.78 in 10.0 mi ENE 26.5 mph - N/A   Clear
3:53 PM 63.0 °F - 16.0 °F 16% 29.81 in 10.0 mi ENE 20.7 mph - N/A   Clear
4:53 PM 59.0 °F - 18.0 °F 20% 29.85 in 10.0 mi ENE 15.0 mph - N/A   Clear
5:53 PM 51.1 °F - 19.9 °F 29% 29.91 in 10.0 mi ENE 11.5 mph - N/A   Clear
6:53 PM 46.0 °F 41.9 °F 23.0 °F 40% 29.97 in 10.0 mi ENE 8.1 mph - N/A   Clear
7:53 PM 42.1 °F 36.6 °F 23.0 °F 47% 29.97 in 10.0 mi East 9.2 mph - N/A   Clear
8:53 PM 39.9 °F 35.8 °F 24.1 °F 53% 29.98 in 10.0 mi East 5.8 mph - N/A   Clear
9:53 PM 41.0 °F 38.0 °F 24.1 °F 51% 29.95 in 10.0 mi ESE 4.6 mph - N/A   Clear
10:53 PM 41.0 °F - 24.1 °F 51% 29.96 in 10.0 mi Calm Calm - N/A   Clear
11:53 PM 39.0 °F - 26.1 °F 60% 29.94 in 10.0 mi Calm Calm - N/A   Clear